﻿_id,日時,平均風速(m/s),平均風向,最大瞬間風速(m/s),最大風速時風向,気温(℃),湿度(%),10分間移動積算雨量(mm),1時間移動積算雨量(mm),日雨量(mm),累計雨量(mm),日射(日積算)(MJ/m2),日照(日積算)(min),現地気圧(hPa),海面気圧(hPa)
1,2019-12-09T00:00:00,1,西北西,1.7,西北西,5,95.9,0,0,0,0,6.73,168,1013,1027.5
2,2019-12-09T00:01:00,0.9,西北西,1.7,西北西,5,95.9,0,0,0,0,0,0,1013,1027.5
3,2019-12-09T00:02:00,0.9,西北西,1.5,西北西,5,96,0,0,0,0,0,0,1013,1027.5
4,2019-12-09T00:03:00,0.9,西北西,1.5,西北西,5,96,0,0,0,0,0,0,1013,1027.5
5,2019-12-09T00:04:00,0.9,西北西,1.5,西北西,4.8,95.9,0,0,0,0,0,0,1013,1027.5
6,2019-12-09T00:05:00,0.9,西北西,1.5,西北西,4.9,95.8,0,0,0,0,0,0,1013,1027.5
7,2019-12-09T00:06:00,0.8,西北西,1.5,西北西,4.8,95.9,0,0,0,0,0,0,1013,1027.5
8,2019-12-09T00:07:00,0.8,西北西,1.5,西北西,4.7,95.8,0,0,0,0,0,0,1013,1027.5
9,2019-12-09T00:08:00,0.7,西北西,1.5,北西,4.8,95.8,0,0,0,0,0,0,1013,1027.5
10,2019-12-09T00:09:00,0.7,西北西,1.5,北西,4.7,95.9,0,0,0,0,0,0,1013,1027.5
11,2019-12-09T00:10:00,0.7,西北西,1.5,北西,4.7,95.8,0,0,0,0,0,0,1013,1027.5
12,2019-12-09T00:11:00,0.7,北西,1.5,北西,4.8,96,0,0,0,0,0,0,1013,1027.5
13,2019-12-09T00:12:00,0.6,北西,1.5,北西,4.8,96.1,0,0,0,0,0,0,1013,1027.5
14,2019-12-09T00:13:00,0.6,北西,1.5,北西,4.8,96.1,0,0,0,0,0,0,1013,1027.5
15,2019-12-09T00:14:00,0.6,北北西,1.5,北西,4.9,96.1,0,0,0,0,0,0,1013,1027.5
16,2019-12-09T00:15:00,0.6,北北西,1.5,北西,4.9,96.2,0,0,0,0,0,0,1013,1027.5
17,2019-12-09T00:16:00,0.6,北,1.5,北西,4.9,96.2,0,0,0,0,0,0,1013,1027.5
18,2019-12-09T00:17:00,0.7,北,1.5,北西,4.9,96.2,0,0,0,0,0,0,1013,1027.5
19,2019-12-09T00:18:00,0.7,北,1.5,北北東,4.9,96.1,0,0,0,0,0,0,1013,1027.5
20,2019-12-09T00:19:00,0.7,北北東,1.5,北北東,4.9,96.1,0,0,0,0,0,0,1013,1027.5
21,2019-12-09T00:20:00,0.7,北北東,1.5,北北東,4.9,96.2,0,0,0,0,0,0,1013,1027.5
22,2019-12-09T00:21:00,0.6,北北東,1.5,北北東,4.8,96,0,0,0,0,0,0,1013,1027.5
23,2019-12-09T00:22:00,0.6,北北東,1.5,北北東,4.9,96,0,0,0,0,0,0,1013,1027.5
24,2019-12-09T00:23:00,0.6,北北東,1.4,北北東,4.8,96,0,0,0,0,0,0,1013,1027.5
25,2019-12-09T00:24:00,0.5,北北東,1.4,北北東,4.7,96,0,0,0,0,0,0,1013,1027.5
26,2019-12-09T00:25:00,0.5,北北東,1.3,北北東,4.7,95.9,0,0,0,0,0,0,1013,1027.5
27,2019-12-09T00:26:00,0.5,北北東,1.1,北東,4.9,96.1,0,0,0,0,0,0,1013.1,1027.6
28,2019-12-09T00:27:00,0.4,北北東,1,西北西,4.8,96.2,0,0,0,0,0,0,1013.1,1027.6
29,2019-12-09T00:28:00,0.5,北,1.4,西,4.7,96.1,0,0,0,0,0,0,1013.1,1027.6
30,2019-12-09T00:29:00,0.5,北北西,1.4,西,4.6,95.8,0,0,0,0,0,0,1013,1027.5
31,2019-12-09T00:30:00,0.6,北北西,1.4,西,4.6,95.9,0,0,0,0,0,0,1013,1027.5
32,2019-12-09T00:31:00,0.7,北西,2,西,4.6,95.9,0,0,0,0,0,0,1013,1027.5
33,2019-12-09T00:32:00,0.8,北西,2.1,西,4.5,95.8,0,0,0,0,0,0,1013,1027.5
34,2019-12-09T00:33:00,0.8,西北西,2.1,西,4.6,95.9,0,0,0,0,0,0,1013,1027.5
35,2019-12-09T00:34:00,0.9,西北西,2.1,西,4.6,96,0,0,0,0,0,0,1013,1027.5
36,2019-12-09T00:35:00,1,西北西,2.1,西,4.7,96.1,0,0,0,0,0,0,1013,1027.5
37,2019-12-09T00:36:00,1,西北西,2.1,西,4.6,96.1,0,0,0,0,0,0,1013,1027.5
38,2019-12-09T00:37:00,1.1,西北西,2.1,西,4.6,95.9,0,0,0,0,0,0,1013,1027.5
39,2019-12-09T00:38:00,1,西北西,2.1,西,4.6,96.1,0,0,0,0,0,0,1013,1027.5
40,2019-12-09T00:39:00,1,西北西,2.1,西,4.5,96,0,0,0,0,0,0,1013,1027.5
41,2019-12-09T00:40:00,0.9,西北西,2.1,西,4.5,95.9,0,0,0,0,0,0,1012.9,1027.4
42,2019-12-09T00:41:00,0.8,北西,2.1,西,4.5,95.8,0,0,0,0,0,0,1013,1027.5
43,2019-12-09T00:42:00,0.8,北西,1.8,西,4.5,96,0,0,0,0,0,0,1013,1027.5
44,2019-12-09T00:43:00,0.7,北西,1.8,西,4.5,96.1,0,0,0,0,0,0,1013,1027.5
45,2019-12-09T00:44:00,0.6,北西,1.8,西,4.5,96,0,0,0,0,0,0,1012.9,1027.4
46,2019-12-09T00:45:00,0.6,北西,1.8,西,4.6,96.1,0,0,0,0,0,0,1012.9,1027.4
47,2019-12-09T00:46:00,0.6,北北西,1.8,西,4.6,96.2,0,0,0,0,0,0,1012.9,1027.4
48,2019-12-09T00:47:00,0.6,北北西,1.8,西,4.6,96.1,0,0,0,0,0,0,1012.9,1027.4
49,2019-12-09T00:48:00,0.5,北北西,1.2,北,4.7,96.2,0,0,0,0,0,0,1012.9,1027.4
50,2019-12-09T00:49:00,0.6,北,1.2,北,4.8,96.3,0,0,0,0,0,0,1012.9,1027.4
51,2019-12-09T00:50:00,0.6,北北西,1.2,北,4.7,96.3,0,0,0,0,0,0,1012.9,1027.4
52,2019-12-09T00:51:00,0.6,北,1.2,北,4.7,96.2,0,0,0,0,0,0,1012.9,1027.4
53,2019-12-09T00:52:00,0.6,北,1.3,北東,4.5,96.1,0,0,0,0,0,0,1012.9,1027.4
54,2019-12-09T00:53:00,0.6,北,1.3,北東,4.6,96.1,0,0,0,0,0,0,1012.9,1027.4
55,2019-12-09T00:54:00,0.7,北北東,1.3,北東,4.5,96.1,0,0,0,0,0,0,1012.9,1027.4
56,2019-12-09T00:55:00,0.7,北北東,1.4,北東,4.6,96,0,0,0,0,0,0,1012.9,1027.4
57,2019-12-09T00:56:00,0.8,北北東,1.8,北東,4.6,96.1,0,0,0,0,0,0,1012.9,1027.4
58,2019-12-09T00:57:00,0.8,北東,1.8,北東,4.6,96.2,0,0,0,0,0,0,1012.9,1027.4
59,2019-12-09T00:58:00,0.9,北東,1.8,北東,4.5,96.2,0,0,0,0,0,0,1012.8,1027.3
60,2019-12-09T00:59:00,0.8,北東,1.8,北東,4.5,96,0,0,0,0,0,0,1012.8,1027.3
61,2019-12-09T01:00:00,0.8,北東,1.8,北東,4.5,96.1,0,0,0,0,0,0,1012.8,1027.3
62,2019-12-09T01:01:00,0.8,北東,1.8,北東,4.4,96,0,0,0,0,0,0,1012.8,1027.3
63,2019-12-09T01:02:00,0.8,北東,1.8,北東,4.5,96,0,0,0,0,0,0,1012.8,1027.3
64,2019-12-09T01:03:00,0.9,北東,1.8,北東,4.6,96.3,0,0,0,0,0,0,1012.8,1027.3
65,2019-12-09T01:04:00,0.9,北東,1.8,北東,4.6,96.3,0,0,0,0,0,0,1012.8,1027.3
66,2019-12-09T01:05:00,0.9,北東,1.8,北東,4.6,96.3,0,0,0,0,0,0,1012.8,1027.3
67,2019-12-09T01:06:00,0.8,北東,1.5,北,4.6,96.3,0,0,0,0,0,0,1012.8,1027.3
68,2019-12-09T01:07:00,0.7,北北東,1.5,北,4.5,96.2,0,0,0,0,0,0,1012.8,1027.3
69,2019-12-09T01:08:00,0.7,北北東,1.5,北,4.6,96.2,0,0,0,0,0,0,1012.8,1027.3
70,2019-12-09T01:09:00,0.7,北北東,1.5,北,4.4,96.2,0,0,0,0,0,0,1012.8,1027.3
71,2019-12-09T01:10:00,0.7,北北東,1.5,北,4.5,96.1,0,0,0,0,0,0,1012.8,1027.3
72,2019-12-09T01:11:00,0.7,北,1.5,北,4.5,96.2,0,0,0,0,0,0,1012.8,1027.3
73,2019-12-09T01:12:00,0.6,北,1.5,北,4.4,96.1,0,0,0,0,0,0,1012.8,1027.3
74,2019-12-09T01:13:00,0.5,北,1.5,北,4.4,96,0,0,0,0,0,0,1012.8,1027.3
75,2019-12-09T01:14:00,0.5,北北西,1.3,北西,4.5,96.1,0,0,0,0,0,0,1012.8,1027.3
76,2019-12-09T01:15:00,0.5,北北西,1.3,北西,4.5,96.3,0,0,0,0,0,0,1012.8,1027.3
77,2019-12-09T01:16:00,0.5,北北西,1.3,北西,4.5,96.3,0,0,0,0,0,0,1012.8,1027.3
78,2019-12-09T01:17:00,0.5,北北西,1.3,北西,4.4,96.2,0,0,0,0,0,0,1012.8,1027.3
79,2019-12-09T01:18:00,0.6,北西,1.3,北西,4.4,96.2,0,0,0,0,0,0,1012.8,1027.3
80,2019-12-09T01:19:00,0.6,北西,1.3,北西,4.3,96.2,0,0,0,0,0,0,1012.9,1027.4
81,2019-12-09T01:20:00,0.6,北西,1.3,北西,4.4,96.1,0,0,0,0,0,0,1012.8,1027.3
82,2019-12-09T01:21:00,0.6,北西,1.3,北西,4.3,96,0,0,0,0,0,0,1012.8,1027.3
83,2019-12-09T01:22:00,0.6,北西,1.3,北西,4.4,96.1,0,0,0,0,0,0,1012.8,1027.3
84,2019-12-09T01:23:00,0.6,北西,1.2,北北東,4.4,96.2,0,0,0,0,0,0,1012.8,1027.3
85,2019-12-09T01:24:00,0.6,北西,1.2,北北東,4.4,96.2,0,0,0,0,0,0,1012.8,1027.3
86,2019-12-09T01:25:00,0.6,北北西,1.2,北北東,4.3,96.2,0,0,0,0,0,0,1012.8,1027.3
87,2019-12-09T01:26:00,0.5,北北西,1.2,北北東,4.3,96.2,0,0,0,0,0,0,1012.8,1027.3
88,2019-12-09T01:27:00,0.5,北北西,1.2,北北東,4.3,96.1,0,0,0,0,0,0,1012.7,1027.2
89,2019-12-09T01:28:00,0.5,北北西,1.2,北北東,4.3,96.2,0,0,0,0,0,0,1012.7,1027.2
90,2019-12-09T01:29:00,0.5,北,1.7,北,4.4,96.3,0,0,0,0,0,0,1012.7,1027.2
91,2019-12-09T01:30:00,0.5,北,1.7,北,4.4,96.2,0,0,0,0,0,0,1012.7,1027.2
92,2019-12-09T01:31:00,0.6,北,1.7,北,4.5,96.3,0,0,0,0,0,0,1012.7,1027.2
93,2019-12-09T01:32:00,0.7,北,1.7,北,4.5,96.4,0,0,0,0,0,0,1012.7,1027.2
94,2019-12-09T01:33:00,0.7,北,1.7,北,4.4,96.4,0,0,0,0,0,0,1012.7,1027.2
95,2019-12-09T01:34:00,0.7,北,1.7,北,4.4,96.2,0,0,0,0,0,0,1012.8,1027.3
96,2019-12-09T01:35:00,0.8,北,1.7,北,4.3,96.1,0,0,0,0,0,0,1012.8,1027.3
97,2019-12-09T01:36:00,0.8,北,1.7,北,4.3,96.1,0,0,0,0,0,0,1012.8,1027.3
98,2019-12-09T01:37:00,0.9,北,1.9,北西,4.3,96.1,0,0,0,0,0,0,1012.8,1027.3
99,2019-12-09T01:38:00,1,北,1.9,北西,4.3,96.1,0,0,0,0,0,0,1012.8,1027.3
100,2019-12-09T01:39:00,1,北北西,1.9,北西,4.1,96,0,0,0,0,0,0,1012.8,1027.3
101,2019-12-09T01:40:00,0.9,北北西,1.9,北西,4,95.9,0,0,0,0,0,0,1012.8,1027.4
102,2019-12-09T01:41:00,0.8,北北西,1.9,北西,4.2,96,0,0,0,0,0,0,1012.8,1027.3
103,2019-12-09T01:42:00,0.7,北西,1.9,北西,4,96.1,0,0,0,0,0,0,1012.8,1027.4
104,2019-12-09T01:43:00,0.7,西北西,1.9,北西,4.2,96,0,0,0,0,0,0,1012.8,1027.3
105,2019-12-09T01:44:00,0.8,西北西,1.9,北西,4.2,96.3,0,0,0,0,0,0,1012.7,1027.2
106,2019-12-09T01:45:00,0.9,西北西,1.9,北西,4.2,96.3,0,0,0,0,0,0,1012.7,1027.2
107,2019-12-09T01:46:00,0.9,西北西,1.9,北西,4.2,96.3,0,0,0,0,0,0,1012.8,1027.3
108,2019-12-09T01:47:00,0.9,西北西,2,西北西,4.3,96.3,0,0,0,0,0,0,1012.7,1027.2
109,2019-12-09T01:48:00,0.9,西北西,2,西北西,4.2,96.2,0,0,0,0,0,0,1012.7,1027.2
110,2019-12-09T01:49:00,0.9,西北西,2,西北西,4.1,96.2,0,0,0,0,0,0,1012.7,1027.2
111,2019-12-09T01:50:00,1,西北西,2,西北西,4.3,96.3,0,0,0,0,0,0,1012.7,1027.2
112,2019-12-09T01:51:00,1.1,西北西,2,西北西,4.3,96.3,0,0,0,0,0,0,1012.7,1027.2
113,2019-12-09T01:52:00,1.1,西北西,2,西北西,4.3,96.3,0,0,0,0,0,0,1012.7,1027.2
114,2019-12-09T01:53:00,1.1,北西,2,西北西,4.3,96.3,0,0,0,0,0,0,1012.7,1027.2
115,2019-12-09T01:54:00,0.9,北西,2,西北西,4.2,96.3,0,0,0,0,0,0,1012.7,1027.2
116,2019-12-09T01:55:00,0.9,北西,2,西北西,4.2,96.2,0,0,0,0,0,0,1012.7,1027.2
117,2019-12-09T01:56:00,0.8,北西,2,西北西,4.3,96.2,0,0,0,0,0,0,1012.7,1027.2
118,2019-12-09T01:57:00,0.8,西北西,1.7,西,4.2,96.2,0,0,0,0,0,0,1012.7,1027.2
119,2019-12-09T01:58:00,0.7,西北西,1.5,西,4.1,96,0,0,0,0,0,0,1012.7,1027.2
120,2019-12-09T01:59:00,0.7,西北西,1.5,西,4.2,96.1,0,0,0,0,0,0,1012.7,1027.2
121,2019-12-09T02:00:00,0.7,西北西,1.7,西北西,4.1,96.2,0,0,0,0,0,0,1012.7,1027.2
122,2019-12-09T02:01:00,0.7,西北西,1.7,西北西,4.1,96,0,0,0,0,0,0,1012.7,1027.2
123,2019-12-09T02:02:00,0.7,西北西,1.7,西北西,4.2,96.1,0,0,0,0,0,0,1012.7,1027.2
124,2019-12-09T02:03:00,0.7,西,1.7,西北西,4.1,96.2,0,0,0,0,0,0,1012.7,1027.2
125,2019-12-09T02:04:00,0.8,西,1.7,西北西,4.1,96.2,0,0,0,0,0,0,1012.7,1027.2
126,2019-12-09T02:05:00,0.8,西北西,1.7,西北西,4.1,96.2,0,0,0,0,0,0,1012.7,1027.2
127,2019-12-09T02:06:00,0.8,西北西,1.7,西北西,4.2,96.2,0,0,0,0,0,0,1012.7,1027.2
128,2019-12-09T02:07:00,0.7,西北西,1.7,西北西,4.1,96.2,0,0,0,0,0,0,1012.7,1027.2
129,2019-12-09T02:08:00,0.7,北西,1.7,西北西,4.1,96.2,0,0,0,0,0,0,1012.7,1027.2
130,2019-12-09T02:09:00,0.7,北西,1.7,西北西,4.2,96.3,0,0,0,0,0,0,1012.8,1027.3
131,2019-12-09T02:10:00,0.7,北西,1.4,北北東,4.1,96.2,0,0,0,0,0,0,1012.8,1027.3
132,2019-12-09T02:11:00,0.7,北西,1.4,北北東,4,96.1,0,0,0,0,0,0,1012.8,1027.4
133,2019-12-09T02:12:00,0.7,北西,1.4,北北東,3.9,96,0,0,0,0,0,0,1012.7,1027.3
134,2019-12-09T02:13:00,0.6,北西,1.4,北北東,4,96,0,0,0,0,0,0,1012.7,1027.3
135,2019-12-09T02:14:00,0.6,北西,1.3,西北西,4.1,96.1,0,0,0,0,0,0,1012.7,1027.2
136,2019-12-09T02:15:00,0.6,北西,1.3,西北西,4.2,96.2,0,0,0,0,0,0,1012.6,1027.1
137,2019-12-09T02:16:00,0.6,北西,1.6,北西,4.1,96.3,0,0,0,0,0,0,1012.6,1027.1
138,2019-12-09T02:17:00,0.7,北西,1.8,北西,4.2,96.3,0,0,0,0,0,0,1012.6,1027.1
139,2019-12-09T02:18:00,0.8,北西,2,西北西,4.1,96.3,0,0,0,0,0,0,1012.6,1027.1
140,2019-12-09T02:19:00,0.9,北西,2,西北西,4.1,96.2,0,0,0,0,0,0,1012.6,1027.1
141,2019-12-09T02:20:00,0.9,北西,2,西北西,4.2,96.3,0,0,0,0,0,0,1012.6,1027.1
142,2019-12-09T02:21:00,0.9,北西,2,西北西,4.2,96.3,0,0,0,0,0,0,1012.6,1027.1
143,2019-12-09T02:22:00,1,北西,2,西北西,4.1,96.3,0,0,0,0,0,0,1012.6,1027.1
144,2019-12-09T02:23:00,1,北西,2,西北西,4.1,96.2,0,0,0,0,0,0,1012.6,1027.1
145,2019-12-09T02:24:00,1,北西,2,西北西,4.1,96.2,0,0,0,0,0,0,1012.5,1027
146,2019-12-09T02:25:00,0.9,北西,2,西北西,3.9,96.1,0,0,0,0,0,0,1012.5,1027.1
147,2019-12-09T02:26:00,0.9,西北西,2,西北西,3.8,95.9,0,0,0,0,0,0,1012.5,1027.1
148,2019-12-09T02:27:00,0.8,西北西,2,西北西,3.9,96,0,0,0,0,0,0,1012.6,1027.2
149,2019-12-09T02:28:00,0.8,西北西,2,北西,3.9,96.1,0,0,0,0,0,0,1012.6,1027.2
150,2019-12-09T02:29:00,0.8,西北西,2,北西,4,96.2,0,0,0,0,0,0,1012.6,1027.2
151,2019-12-09T02:30:00,0.8,西北西,2,北西,4,96.3,0,0,0,0,0,0,1012.6,1027.2
152,2019-12-09T02:31:00,0.7,西北西,2,北西,3.9,96.2,0,0,0,0,0,0,1012.6,1027.2
153,2019-12-09T02:32:00,0.7,北西,2,北西,4,96.2,0,0,0,0,0,0,1012.6,1027.2
154,2019-12-09T02:33:00,0.7,西北西,1.4,西,4,96.3,0,0,0,0,0,0,1012.6,1027.2
155,2019-12-09T02:34:00,0.7,西北西,1.4,西,4,96.3,0,0,0,0,0,0,1012.7,1027.3
156,2019-12-09T02:35:00,0.8,北西,1.4,西,3.9,96.2,0,0,0,0,0,0,1012.6,1027.2
157,2019-12-09T02:36:00,0.8,北西,1.4,西,3.9,96.1,0,0,0,0,0,0,1012.6,1027.2
158,2019-12-09T02:37:00,0.8,北西,1.4,西,3.9,96.1,0,0,0,0,0,0,1012.6,1027.2
159,2019-12-09T02:38:00,0.8,北北西,1.3,北西,4,96.2,0,0,0,0,0,0,1012.6,1027.2
160,2019-12-09T02:39:00,0.7,北北西,1.3,北西,4.1,96.3,0,0,0,0,0,0,1012.6,1027.1
161,2019-12-09T02:40:00,0.8,北北西,1.3,北西,4,96.3,0,0,0,0,0,0,1012.6,1027.2
162,2019-12-09T02:41:00,0.8,北北西,1.3,北西,3.9,96.2,0,0,0,0,0,0,1012.6,1027.2
163,2019-12-09T02:42:00,0.8,北北西,1.3,北西,4,96.2,0,0,0,0,0,0,1012.6,1027.2
164,2019-12-09T02:43:00,0.8,北北西,1.7,北西,3.9,96.3,0,0,0,0,0,0,1012.6,1027.2
165,2019-12-09T02:44:00,0.9,北北西,2.1,北西,4,96.2,0,0,0,0,0,0,1012.6,1027.2
166,2019-12-09T02:45:00,1,北北西,2.1,北西,3.9,96.2,0,0,0,0,0,0,1012.6,1027.2
167,2019-12-09T02:46:00,1.1,北北西,2.1,北西,3.9,96.2,0,0,0,0,0,0,1012.5,1027.1
168,2019-12-09T02:47:00,1.2,北西,2.1,北西,4,96.2,0,0,0,0,0,0,1012.5,1027.1
169,2019-12-09T02:48:00,1.3,北西,2.2,西北西,4.1,96.3,0,0,0,0,0,0,1012.5,1027
170,2019-12-09T02:49:00,1.4,北西,2.5,西,4,96.3,0,0,0,0,0,0,1012.5,1027.1
171,2019-12-09T02:50:00,1.6,西北西,2.5,西,3.8,96.2,0,0,0,0,0,0,1012.5,1027.1
172,2019-12-09T02:51:00,1.7,西北西,2.5,西,3.9,96.1,0,0,0,0,0,0,1012.5,1027.1
173,2019-12-09T02:52:00,1.8,西北西,2.7,西,3.7,96.1,0,0,0,0,0,0,1012.5,1027.1
174,2019-12-09T02:53:00,1.9,西北西,2.7,西,3.7,96,0,0,0,0,0,0,1012.5,1027.1
175,2019-12-09T02:54:00,1.9,西北西,2.7,西,3.6,95.9,0,0,0,0,0,0,1012.5,1027.1
176,2019-12-09T02:55:00,1.9,西,2.7,西,3.6,95.9,0,0,0,0,0,0,1012.5,1027.1
177,2019-12-09T02:56:00,2,西,3.3,西,3.7,96.1,0,0,0,0,0,0,1012.5,1027.1
178,2019-12-09T02:57:00,2.1,西,3.3,西,3.6,96,0,0,0,0,0,0,1012.5,1027.1
179,2019-12-09T02:58:00,2.1,西,3.3,西,3.5,96,0,0,0,0,0,0,1012.5,1027.1
180,2019-12-09T02:59:00,2.1,西,3.3,西,3.5,96,0,0,0,0,0,0,1012.5,1027.1
181,2019-12-09T03:00:00,2.1,西,3.3,西,3.4,95.9,0,0,0,0,0,0,1012.4,1027
182,2019-12-09T03:01:00,2.1,西,3.3,西,3.4,95.9,0,0,0,0,0,0,1012.4,1027
183,2019-12-09T03:02:00,2.1,西,3.3,西,3.4,95.9,0,0,0,0,0,0,1012.4,1027
184,2019-12-09T03:03:00,2,西,3.3,西,3.5,96,0,0,0,0,0,0,1012.4,1027
185,2019-12-09T03:04:00,2,西,3.3,西,3.4,96.1,0,0,0,0,0,0,1012.4,1027
186,2019-12-09T03:05:00,2,西,3.3,西,3.5,96,0,0,0,0,0,0,1012.4,1027
187,2019-12-09T03:06:00,1.9,西,3.1,西,3.4,96.1,0,0,0,0,0,0,1012.4,1027
188,2019-12-09T03:07:00,1.8,西,3,西,3.4,96.2,0,0,0,0,0,0,1012.4,1027
189,2019-12-09T03:08:00,1.7,西南西,3,西,3.4,96.1,0,0,0,0,0,0,1012.4,1027
190,2019-12-09T03:09:00,1.7,西南西,3,西,3.4,96.1,0,0,0,0,0,0,1012.3,1026.9
191,2019-12-09T03:10:00,1.6,西南西,2.7,西,3.5,96.2,0,0,0,0,0,0,1012.3,1026.9
192,2019-12-09T03:11:00,1.6,西南西,2.7,西,3.5,96.3,0,0,0,0,0,0,1012.4,1027
193,2019-12-09T03:12:00,1.6,西南西,2.7,西,3.5,96.3,0,0,0,0,0,0,1012.3,1026.9
194,2019-12-09T03:13:00,1.5,西南西,2.8,西,3.5,96.3,0,0,0,0,0,0,1012.3,1026.9
195,2019-12-09T03:14:00,1.6,西南西,3.2,西北西,3.5,96.3,0,0,0,0,0,0,1012.3,1026.9
196,2019-12-09T03:15:00,1.7,西南西,3.2,西北西,3.4,96.2,0,0,0,0,0,0,1012.3,1026.9
197,2019-12-09T03:16:00,1.7,西,3.2,西北西,3.3,96.1,0,0,0,0,0,0,1012.3,1026.9
198,2019-12-09T03:17:00,1.7,西,3.2,西北西,3.3,96,0,0,0,0,0,0,1012.3,1026.9
199,2019-12-09T03:18:00,1.8,西,3.2,西北西,3.3,96.1,0,0,0,0,0,0,1012.4,1027
200,2019-12-09T03:19:00,1.8,西,3.2,西北西,3.3,96.1,0,0,0,0,0,0,1012.4,1027
201,2019-12-09T03:20:00,1.8,西,3.2,西北西,3.4,96.2,0,0,0,0,0,0,1012.3,1026.9
202,2019-12-09T03:21:00,1.9,西,3.2,西北西,3.3,96.2,0,0,0,0,0,0,1012.3,1026.9
203,2019-12-09T03:22:00,1.9,西,3.2,西北西,3.3,96.1,0,0,0,0,0,0,1012.3,1026.9
204,2019-12-09T03:23:00,1.8,西,3.2,西北西,3.3,96.1,0,0,0,0,0,0,1012.3,1026.9
205,2019-12-09T03:24:00,1.8,西,3,西南西,3.2,96,0,0,0,0,0,0,1012.3,1026.9
206,2019-12-09T03:25:00,1.8,西,3.2,西南西,3.2,96,0,0,0,0,0,0,1012.3,1026.9
207,2019-12-09T03:26:00,1.9,西,3.2,西南西,3.1,96,0,0,0,0,0,0,1012.2,1026.8
208,2019-12-09T03:27:00,2,西,3.2,西南西,3.1,96,0,0,0,0,0,0,1012.2,1026.8
209,2019-12-09T03:28:00,2,西,3.2,西南西,3.1,96.1,0,0,0,0,0,0,1012.2,1026.8
210,2019-12-09T03:29:00,2,西,3.2,西南西,3.2,96.1,0,0,0,0,0,0,1012.3,1026.9
211,2019-12-09T03:30:00,1.9,西,3.2,西南西,3.3,96.3,0,0,0,0,0,0,1012.3,1026.9
212,2019-12-09T03:31:00,1.8,西,3.2,西南西,3.2,96.3,0,0,0,0,0,0,1012.2,1026.8
213,2019-12-09T03:32:00,1.7,西,3.2,西南西,3.4,96.3,0,0,0,0,0,0,1012.2,1026.8
214,2019-12-09T03:33:00,1.8,西,3.2,西南西,3.4,96.5,0,0,0,0,0,0,1012.2,1026.8
215,2019-12-09T03:34:00,1.8,西,3.2,西南西,3.3,96.4,0,0,0,0,0,0,1012.2,1026.8
216,2019-12-09T03:35:00,1.7,西,3.2,西,3.4,96.4,0,0,0,0,0,0,1012.3,1026.9
217,2019-12-09T03:36:00,1.7,西,2.9,西,3.3,96.4,0,0,0,0,0,0,1012.3,1026.9
218,2019-12-09T03:37:00,1.7,西北西,2.7,西,3.4,96.3,0,0,0,0,0,0,1012.3,1026.9
219,2019-12-09T03:38:00,1.6,西北西,2.6,西北西,3.4,96.4,0,0,0,0,0,0,1012.2,1026.8
220,2019-12-09T03:39:00,1.7,西北西,2.6,西北西,3.4,96.4,0,0,0,0,0,0,1012.2,1026.8
221,2019-12-09T03:40:00,1.7,西北西,2.6,西北西,3.4,96.4,0,0,0,0,0,0,1012.2,1026.8
222,2019-12-09T03:41:00,1.8,西北西,2.6,西北西,3.3,96.4,0,0,0,0,0,0,1012.2,1026.8
223,2019-12-09T03:42:00,1.8,西北西,2.6,西北西,3.4,96.3,0,0,0,0,0,0,1012.2,1026.8
224,2019-12-09T03:43:00,1.8,西北西,2.5,西北西,3.3,96.3,0,0,0,0,0,0,1012.2,1026.8
225,2019-12-09T03:44:00,1.7,西北西,2.5,西北西,3.3,96.2,0,0,0,0,0,0,1012.2,1026.8
226,2019-12-09T03:45:00,1.7,西北西,2.5,西北西,3.2,96.2,0,0,0,0,0,0,1012.2,1026.8
227,2019-12-09T03:46:00,1.7,西,2.7,西,3.1,96.2,0,0,0,0,0,0,1012.2,1026.8
228,2019-12-09T03:47:00,1.7,西,3,西,3.1,96,0,0,0,0,0,0,1012.2,1026.8
229,2019-12-09T03:48:00,1.6,西,3,西,3,96.1,0,0,0,0,0,0,1012.2,1026.8
230,2019-12-09T03:49:00,1.6,西,3,西,3,96.1,0,0,0,0,0,0,1012.2,1026.8
231,2019-12-09T03:50:00,1.6,西,3,西,3,96,0,0,0,0,0,0,1012.2,1026.8
232,2019-12-09T03:51:00,1.7,西,3,西,3.1,96.2,0,0,0,0,0,0,1012.2,1026.8
233,2019-12-09T03:52:00,1.8,西,3,西,3.1,96.3,0,0,0,0,0,0,1012.2,1026.8
234,2019-12-09T03:53:00,1.8,西,3,西,3.1,96.3,0,0,0,0,0,0,1012.2,1026.8
235,2019-12-09T03:54:00,1.9,西,3,西,3,96.2,0,0,0,0,0,0,1012.2,1026.8
236,2019-12-09T03:55:00,1.9,西,3,西,3,96.2,0,0,0,0,0,0,1012.2,1026.8
237,2019-12-09T03:56:00,1.9,西,3,西,3,96.2,0,0,0,0,0,0,1012.2,1026.8
238,2019-12-09T03:57:00,1.9,西,2.8,西,3,96.2,0,0,0,0,0,0,1012.2,1026.8
239,2019-12-09T03:58:00,1.9,西,2.8,西,3,96.3,0,0,0,0,0,0,1012.2,1026.8
240,2019-12-09T03:59:00,1.9,西,2.8,西,2.9,96.3,0,0,0,0,0,0,1012.3,1026.9
241,2019-12-09T04:00:00,2,西,2.8,西,3.1,96.3,0,0,0,0,0,0,1012.3,1026.9
242,2019-12-09T04:01:00,2,西,2.8,西,3.1,96.3,0,0,0,0,0,0,1012.2,1026.8
243,2019-12-09T04:02:00,1.9,西,2.8,西,3.1,96.4,0,0,0,0,0,0,1012.2,1026.8
244,2019-12-09T04:03:00,1.8,西,2.6,西南西,3.1,96.4,0,0,0,0,0,0,1012.3,1026.9
245,2019-12-09T04:04:00,1.7,西,2.6,西南西,3.2,96.5,0,0,0,0,0,0,1012.3,1026.9
246,2019-12-09T04:05:00,1.7,西,2.6,西南西,3,96.4,0,0,0,0,0,0,1012.3,1026.9
247,2019-12-09T04:06:00,1.6,西,2.6,西南西,3.2,96.3,0,0,0,0,0,0,1012.3,1026.9
248,2019-12-09T04:07:00,1.5,西,2.6,西南西,3.2,96.5,0,0,0,0,0,0,1012.2,1026.8
249,2019-12-09T04:08:00,1.3,西,2.4,西,3.2,96.5,0,0,0,0,0,0,1012.2,1026.8
250,2019-12-09T04:09:00,1.2,西,2.4,西,3.2,96.5,0,0,0,0,0,0,1012.2,1026.8
251,2019-12-09T04:10:00,1.1,西北西,2.4,西,3.3,96.5,0,0,0,0,0,0,1012.2,1026.8
252,2019-12-09T04:11:00,0.9,西北西,2.4,西,3.3,96.5,0,0,0,0,0,0,1012.2,1026.8
253,2019-12-09T04:12:00,0.9,西北西,2.3,西,3.4,96.6,0,0,0,0,0,0,1012.2,1026.8
254,2019-12-09T04:13:00,0.9,北西,2.3,西,3.4,96.6,0,0,0,0,0,0,1012.1,1026.7
255,2019-12-09T04:14:00,0.8,北西,2.3,西,3.5,96.7,0,0,0,0,0,0,1012.1,1026.7
256,2019-12-09T04:15:00,0.8,北北西,2.4,北東,3.4,96.7,0,0,0,0,0,0,1012.1,1026.7
257,2019-12-09T04:16:00,0.9,北北西,3.1,北,3.5,96.6,0,0,0,0,0,0,1012.2,1026.8
258,2019-12-09T04:17:00,1,北,3.1,北,3.5,96.7,0,0,0,0,0,0,1012.1,1026.7
259,2019-12-09T04:18:00,1,北,3.1,北,3.5,96.7,0,0,0,0,0,0,1012.1,1026.7
260,2019-12-09T04:19:00,1.1,北,3.1,北,3.4,96.5,0,0,0,0,0,0,1012.1,1026.7
261,2019-12-09T04:20:00,1.1,北,3.1,北,3.4,96.5,0,0,0,0,0,0,1012.1,1026.7
262,2019-12-09T04:21:00,1.1,北,3.1,北,3.4,96.5,0,0,0,0,0,0,1012.2,1026.8
263,2019-12-09T04:22:00,1.1,北,3.1,北,3.4,96.4,0,0,0,0,0,0,1012.2,1026.8
264,2019-12-09T04:23:00,1.1,北北西,3.1,北,3.4,96.4,0,0,0,0,0,0,1012.2,1026.8
265,2019-12-09T04:24:00,1.2,北北西,3.1,北,3.4,96.4,0,0,0,0,0,0,1012.2,1026.8
266,2019-12-09T04:25:00,1.2,北北西,3.1,北,3.5,96.4,0,0,0,0,0,0,1012.2,1026.8
267,2019-12-09T04:26:00,1.1,北北西,2.7,北,3.4,96.5,0,0,0,0,0,0,1012.2,1026.8
268,2019-12-09T04:27:00,1.1,北北西,2.4,北西,3.5,96.5,0,0,0,0,0,0,1012.2,1026.8
269,2019-12-09T04:28:00,1.2,北北西,2.4,北西,3.4,96.5,0,0,0,0,0,0,1012.3,1026.9
270,2019-12-09T04:29:00,1.2,北西,2.4,北西,3.4,96.4,0,0,0,0,0,0,1012.3,1026.9
271,2019-12-09T04:30:00,1.3,北西,2.4,北西,3.4,96.4,0,0,0,0,0,0,1012.3,1026.9
272,2019-12-09T04:31:00,1.4,北西,2.4,北西,3.4,96.4,0,0,0,0,0,0,1012.3,1026.9
273,2019-12-09T04:32:00,1.4,北西,2.4,北西,3.4,96.4,0,0,0,0,0,0,1012.4,1027
274,2019-12-09T04:33:00,1.5,北西,2.4,北西,3.3,96.4,0,0,0,0,0,0,1012.3,1026.9
275,2019-12-09T04:34:00,1.5,北西,2.4,北西,3.4,96.4,0,0,0,0,0,0,1012.4,1027
276,2019-12-09T04:35:00,1.4,北西,2.3,北西,3.5,96.5,0,0,0,0,0,0,1012.4,1027
277,2019-12-09T04:36:00,1.4,北西,2.3,北西,3.5,96.6,0,0,0,0,0,0,1012.3,1026.9
278,2019-12-09T04:37:00,1.4,北西,2.3,北西,3.4,96.5,0,0,0,0,0,0,1012.4,1027
279,2019-12-09T04:38:00,1.4,北西,2.3,北西,3.4,96.4,0,0,0,0,0,0,1012.4,1027
280,2019-12-09T04:39:00,1.4,北西,2.3,北西,3.3,96.4,0,0,0,0,0,0,1012.4,1027
281,2019-12-09T04:40:00,1.3,北西,2.3,北西,3.4,96.4,0,0,0,0,0,0,1012.4,1027
282,2019-12-09T04:41:00,1.3,北西,2.4,北西,3.4,96.4,0,0,0,0,0,0,1012.4,1027
283,2019-12-09T04:42:00,1.2,北西,2.4,北西,3.4,96.4,0,0,0,0,0,0,1012.4,1027
284,2019-12-09T04:43:00,1.1,北西,2.4,北西,3.3,96.4,0,0,0,0,0,0,1012.4,1027
285,2019-12-09T04:44:00,1.1,北西,2.7,北西,3.3,96.4,0,0,0,0,0,0,1012.4,1027
286,2019-12-09T04:45:00,1.2,北西,2.7,北西,3.3,96.3,0,0,0,0,0,0,1012.4,1027
287,2019-12-09T04:46:00,1.2,北西,2.7,北西,3.3,96.4,0,0,0,0,0,0,1012.4,1027
288,2019-12-09T04:47:00,1.2,北西,2.7,北西,3.2,96.4,0,0,0,0,0,0,1012.4,1027
289,2019-12-09T04:48:00,1.2,北西,2.7,北西,3.2,96.3,0,0,0,0,0,0,1012.4,1027
290,2019-12-09T04:49:00,1.2,北西,2.7,北西,3.3,96.4,0,0,0,0,0,0,1012.5,1027.1
291,2019-12-09T04:50:00,1.2,北西,2.7,北西,3.2,96.4,0,0,0,0,0,0,1012.5,1027.1
292,2019-12-09T04:51:00,1.2,北西,2.7,北西,3.3,96.4,0,0,0,0,0,0,1012.5,1027.1
293,2019-12-09T04:52:00,1.2,北西,2.7,北西,3.3,96.4,0,0,0,0,0,0,1012.5,1027.1
294,2019-12-09T04:53:00,1.3,北西,2.7,北西,3.3,96.4,0,0,0,0,0,0,1012.5,1027.1
295,2019-12-09T04:54:00,1.2,北西,2.3,北西,3.3,96.4,0,0,0,0,0,0,1012.5,1027.1
296,2019-12-09T04:55:00,1.2,北西,2.2,北西,3.2,96.4,0,0,0,0,0,0,1012.5,1027.1
297,2019-12-09T04:56:00,1.2,北西,2,西北西,3.3,96.4,0,0,0,0,0,0,1012.5,1027.1
298,2019-12-09T04:57:00,1.3,北西,2.1,北西,3.3,96.4,0,0,0,0,0,0,1012.5,1027.1
299,2019-12-09T04:58:00,1.2,北西,2.1,北西,3.3,96.4,0,0,0,0,0,0,1012.5,1027.1
300,2019-12-09T04:59:00,1.3,北西,2.1,北西,3.2,96.4,0,0,0,0,0,0,1012.5,1027.1
301,2019-12-09T05:00:00,1.3,北西,2.1,北西,3.3,96.3,0,0,0,0,0,0,1012.5,1027.1
302,2019-12-09T05:01:00,1.3,北西,2.1,北西,3.2,96.3,0,0,0,0,0,0,1012.6,1027.2
303,2019-12-09T05:02:00,1.3,北西,2.1,北西,3.3,96.3,0,0,0,0,0,0,1012.5,1027.1
304,2019-12-09T05:03:00,1.2,北西,2.1,北西,3.3,96.4,0,0,0,0,0,0,1012.6,1027.2
305,2019-12-09T05:04:00,1.2,北西,2.1,北西,3.1,96.3,0,0,0,0,0,0,1012.5,1027.1
306,2019-12-09T05:05:00,1.1,北西,2.1,北西,3.1,96.2,0,0,0,0,0,0,1012.5,1027.1
307,2019-12-09T05:06:00,1.1,北西,2.1,北西,3.2,96.3,0,0,0,0,0,0,1012.6,1027.2
308,2019-12-09T05:07:00,1,北西,2,西北西,3.2,96.3,0,0,0,0,0,0,1012.6,1027.2
309,2019-12-09T05:08:00,1,北西,2,西北西,3.2,96.3,0,0,0,0,0,0,1012.6,1027.2
310,2019-12-09T05:09:00,1,北西,2,西北西,3.2,96.3,0,0,0,0,0,0,1012.6,1027.2
311,2019-12-09T05:10:00,1,北西,2,西北西,3.1,96.3,0,0,0,0,0,0,1012.6,1027.2
312,2019-12-09T05:11:00,1,北西,1.7,西,3.2,96.3,0,0,0,0,0,0,1012.6,1027.2
313,2019-12-09T05:12:00,1.1,北西,2.3,西,2.9,96.1,0,0,0,0,0,0,1012.6,1027.2
314,2019-12-09T05:13:00,1.2,西北西,2.6,西,2.8,95.9,0,0,0,0,0,0,1012.6,1027.2
315,2019-12-09T05:14:00,1.3,西北西,2.7,西,2.6,95.7,0,0,0,0,0,0,1012.6,1027.2
316,2019-12-09T05:15:00,1.3,西北西,2.7,西,2.6,95.7,0,0,0,0,0,0,1012.6,1027.2
317,2019-12-09T05:16:00,1.4,西,3,西北西,2.9,95.9,0,0,0,0,0,0,1012.6,1027.2
318,2019-12-09T05:17:00,1.6,西,3,西北西,2.7,96.1,0,0,0,0,0,0,1012.6,1027.2
319,2019-12-09T05:18:00,1.7,西,3,西北西,2.7,96,0,0,0,0,0,0,1012.6,1027.2
320,2019-12-09T05:19:00,1.9,西,3,西北西,2.8,96,0,0,0,0,0,0,1012.7,1027.3
321,2019-12-09T05:20:00,2,西,3,西北西,2.8,96.2,0,0,0,0,0,0,1012.6,1027.2
322,2019-12-09T05:21:00,2,西,3,西北西,2.8,96.2,0,0,0,0,0,0,1012.6,1027.2
323,2019-12-09T05:22:00,2,西,3,西北西,2.7,96.2,0,0,0,0,0,0,1012.6,1027.2
324,2019-12-09T05:23:00,1.9,西,3,西北西,2.8,96.1,0,0,0,0,0,0,1012.6,1027.2
325,2019-12-09T05:24:00,1.9,西,3,西北西,2.7,96.1,0,0,0,0,0,0,1012.6,1027.2
326,2019-12-09T05:25:00,1.9,西,3,西北西,2.6,96.1,0,0,0,0,0,0,1012.6,1027.2
327,2019-12-09T05:26:00,1.8,西,2.7,西北西,2.5,95.9,0,0,0,0,0,0,1012.7,1027.3
328,2019-12-09T05:27:00,1.7,西,2.7,西北西,2.6,95.9,0,0,0,0,0,0,1012.6,1027.2
329,2019-12-09T05:28:00,1.7,西,2.9,西,2.6,96,0,0,0,0,0,0,1012.6,1027.2
330,2019-12-09T05:29:00,1.7,西,2.9,西,2.6,96.1,0,0,0,0,0,0,1012.6,1027.2
331,2019-12-09T05:30:00,1.7,西,2.9,西,2.6,96.1,0,0,0,0,0,0,1012.6,1027.2
332,2019-12-09T05:31:00,1.6,西,2.9,西,2.6,96.1,0,0,0,0,0,0,1012.7,1027.3
333,2019-12-09T05:32:00,1.6,西,2.9,西,2.6,96.1,0,0,0,0,0,0,1012.7,1027.3
334,2019-12-09T05:33:00,1.7,西,2.9,西,2.7,96.1,0,0,0,0,0,0,1012.7,1027.3